TimeMDT,TemperatureF,Dew PointF,Humidity,Sea Level PressureIn,VisibilityMPH,Wind Direction,Wind SpeedMPH,Gust SpeedMPH,PrecipitationIn,Events,Conditions,WindDirDegrees,DateUTC
12:12 AM,26.6,19.4,74,29.82,10.0,WSW,3.5,-,N/A,,Scattered Clouds,240,2013-04-17 06:12:00
12:32 AM,24.8,19.4,80,29.82,0.8,SSW,6.9,-,N/A,,Haze,200,2013-04-17 06:32:00
12:52 AM,24.8,19.4,80,29.81,10.0,WSW,5.8,-,N/A,,Scattered Clouds,240,2013-04-17 06:52:00
1:12 AM,26.6,19.4,74,29.81,0.5,South,6.9,12.7,N/A,,Haze,180,2013-04-17 07:12:00
1:32 AM,26.6,17.6,69,29.80,10.0,South,13.8,21.9,N/A,,Mostly Cloudy,170,2013-04-17 07:32:00
1:52 AM,28.4,17.6,64,29.80,10.0,South,17.3,-,N/A,,Overcast,180,2013-04-17 07:52:00
2:12 AM,26.6,17.6,69,29.79,10.0,South,16.1,-,N/A,,Overcast,180,2013-04-17 08:12:00
2:32 AM,26.6,15.8,64,29.79,10.0,South,16.1,20.7,N/A,,Overcast,190,2013-04-17 08:32:00
2:52 AM,26.6,15.8,64,29.78,10.0,South,13.8,19.6,N/A,,Overcast,190,2013-04-17 08:52:00
3:12 AM,26.6,17.6,69,29.76,5.0,SSE,12.7,19.6,N/A,Snow,Light Snow,160,2013-04-17 09:12:00
3:32 AM,26.6,17.6,69,29.76,5.0,South,12.7,-,N/A,Snow,Light Snow,170,2013-04-17 09:32:00
3:52 AM,26.6,17.6,69,29.76,4.0,South,15.0,26.5,N/A,Snow,Light Snow,170,2013-04-17 09:52:00
4:12 AM,26.6,17.6,69,29.77,10.0,South,19.6,-,N/A,,Overcast,180,2013-04-17 10:12:00
4:32 AM,26.6,14.0,59,29.77,10.0,South,23.0,29.9,N/A,,Overcast,180,2013-04-17 10:32:00
4:52 AM,26.6,14.0,59,29.76,10.0,South,20.7,29.9,N/A,,Scattered Clouds,180,2013-04-17 10:52:00
5:12 AM,26.6,12.2,55,29.75,10.0,South,20.7,27.6,N/A,,Clear,180,2013-04-17 11:12:00
5:32 AM,26.6,12.2,55,29.74,10.0,South,21.9,-,N/A,,Clear,170,2013-04-17 11:32:00
5:52 AM,26.6,14.0,59,29.75,2.0,South,21.9,39.1,N/A,Snow,Light Snow,170,2013-04-17 11:52:00
6:12 AM,26.6,14.0,59,29.73,10.0,SSE,24.2,29.9,N/A,,Mostly Cloudy,160,2013-04-17 12:12:00
6:32 AM,26.6,15.8,64,29.72,5.0,SSE,20.7,27.6,N/A,Snow,Light Snow,160,2013-04-17 12:32:00
6:52 AM,24.8,19.4,80,29.73,1.2,South,17.3,25.3,N/A,Snow,Light Snow,180,2013-04-17 12:52:00
7:12 AM,24.8,19.4,80,29.72,0.8,South,17.3,-,N/A,Snow,Light Snow,170,2013-04-17 13:12:00
7:32 AM,24.8,19.4,80,29.71,0.5,SSE,9.2,18.4,N/A,Snow,Snow,150,2013-04-17 13:32:00
8:12 AM,24.8,19.4,80,29.71,0.2,South,16.1,26.5,N/A,Snow,Light Snow,170,2013-04-17 14:12:00
8:32 AM,24.8,17.6,74,29.69,10.0,SE,10.4,18.4,N/A,,Overcast,130,2013-04-17 14:32:00
8:52 AM,26.6,17.6,69,29.69,1.0,SE,11.5,25.3,N/A,Snow,Light Snow,140,2013-04-17 14:52:00
9:12 AM,26.6,15.8,64,29.68,0.2,SSE,20.7,34.5,N/A,Snow,Light Snow,150,2013-04-17 15:12:00
9:32 AM,26.6,15.8,64,29.68,1.5,SSE,24.2,29.9,N/A,Snow,Light Snow,160,2013-04-17 15:32:00
9:52 AM,26.6,15.8,64,29.68,1.0,ESE,9.2,24.2,N/A,Snow,Light Snow,110,2013-04-17 15:52:00
10:12 AM,24.8,17.6,74,29.67,0.2,ESE,16.1,27.6,N/A,Snow,Light Snow,110,2013-04-17 16:12:00
10:32 AM,26.6,19.4,74,29.67,0.5,ESE,10.4,17.3,N/A,Snow,Light Snow,120,2013-04-17 16:32:00
10:52 AM,28.4,14.0,55,29.66,0.2,SE,21.9,29.9,N/A,Snow,Light Snow,140,2013-04-17 16:52:00
11:12 AM,26.6,15.8,64,29.67,0.5,SSE,18.4,36.8,N/A,Snow,Light Snow,150,2013-04-17 17:12:00
11:32 AM,24.8,17.6,74,29.68,1.0,SSE,15.0,29.9,N/A,Snow,Light Snow,160,2013-04-17 17:32:00
11:52 AM,24.8,17.6,74,29.67,0.2,SE,19.6,33.4,N/A,Snow,Snow,140,2013-04-17 17:52:00
12:12 PM,24.8,19.4,80,29.67,0.2,SSE,16.1,24.2,N/A,Snow,Snow,150,2013-04-17 18:12:00
12:32 PM,24.8,17.6,74,29.69,1.2,South,15.0,19.6,N/A,Snow,Light Snow,170,2013-04-17 18:32:00
12:52 PM,23.0,14.0,68,29.70,1.5,North,-9999.0,-,N/A,Snow,Light Snow,0,2013-04-17 18:52:00
1:12 PM,21.2,15.8,80,29.71,0.2,West,21.9,27.6,N/A,Snow,Snow,280,2013-04-17 19:12:00
1:32 PM,19.4,14.0,80,29.71,0.2,West,17.3,-,N/A,Snow,Snow,280,2013-04-17 19:32:00
1:52 PM,19.4,14.0,80,29.71,0.2,North,-9999.0,-,N/A,Snow,Heavy Snow,0,2013-04-17 19:52:00
2:32 PM,17.6,12.2,79,29.73,0.2,West,18.4,-,N/A,Snow,Snow,280,2013-04-17 20:32:00
2:52 PM,17.6,12.2,79,29.73,0.2,West,19.6,-,N/A,Snow,Snow,280,2013-04-17 20:52:00
3:12 PM,19.4,12.2,74,29.72,-9999.0,North,-9999.0,-,N/A,,Overcast,0,2013-04-17 21:12:00
3:32 PM,19.4,14.0,80,29.73,-9999.0,North,-9999.0,-,N/A,,Overcast,0,2013-04-17 21:32:00
3:52 PM,17.6,12.2,79,29.72,-9999.0,North,-9999.0,-,N/A,,Overcast,0,2013-04-17 21:52:00
4:12 PM,17.6,12.2,79,29.73,-9999.0,WNW,21.9,-,N/A,,Overcast,290,2013-04-17 22:12:00
4:32 PM,17.6,12.2,79,29.74,-9999.0,North,-9999.0,-,N/A,,Overcast,0,2013-04-17 22:32:00
4:52 PM,17.6,12.2,79,29.73,-9999.0,North,-9999.0,-,N/A,,Overcast,0,2013-04-17 22:52:00
5:12 PM,15.8,10.4,79,29.74,-9999.0,North,-9999.0,-,N/A,,Overcast,0,2013-04-17 23:12:00
5:32 PM,17.6,12.2,79,29.75,-9999.0,North,-9999.0,-,N/A,,Overcast,0,2013-04-17 23:32:00
5:52 PM,15.8,10.4,79,29.76,-9999.0,West,24.2,-,N/A,,Overcast,280,2013-04-17 23:52:00
6:12 PM,14.0,8.6,79,29.76,-9999.0,North,-9999.0,-,N/A,,Overcast,0,2013-04-18 00:12:00
6:32 PM,14.0,8.6,79,29.77,-9999.0,North,-9999.0,-,N/A,,Overcast,0,2013-04-18 00:32:00
6:52 PM,14.0,8.6,79,29.77,-9999.0,North,-9999.0,-,N/A,,Overcast,0,2013-04-18 00:52:00
7:12 PM,14.0,8.6,79,29.77,-9999.0,North,-9999.0,-,N/A,,Overcast,0,2013-04-18 01:12:00
7:32 PM,14.0,8.6,79,29.77,-9999.0,North,-9999.0,-,N/A,,Overcast,0,2013-04-18 01:32:00
7:52 PM,14.0,8.6,79,29.77,-9999.0,North,-9999.0,-,N/A,,Overcast,0,2013-04-18 01:52:00
8:12 PM,14.0,8.6,79,29.77,-9999.0,North,-9999.0,-,N/A,,Overcast,0,2013-04-18 02:12:00
8:32 PM,14.0,8.6,79,29.79,-9999.0,North,-9999.0,-,N/A,,Overcast,0,2013-04-18 02:32:00
8:52 PM,12.2,5.0,73,29.79,-9999.0,West,20.7,-,N/A,,Overcast,280,2013-04-18 02:52:00
9:12 PM,12.2,5.0,73,29.80,-9999.0,West,18.4,-,N/A,,Overcast,280,2013-04-18 03:12:00
9:32 PM,12.2,5.0,73,29.81,-9999.0,WNW,19.6,-,N/A,,Overcast,290,2013-04-18 03:32:00
9:52 PM,8.6,1.4,73,29.82,-9999.0,WNW,15.0,-,N/A,,Overcast,290,2013-04-18 03:52:00
10:12 PM,8.6,1.4,73,29.81,-9999.0,WNW,15.0,-,N/A,,Overcast,290,2013-04-18 04:12:00
10:32 PM,8.6,1.4,73,29.82,-9999.0,West,8.1,-,N/A,,Overcast,280,2013-04-18 04:32:00
10:51 PM,6.8,-0.4,72,29.82,-9999.0,North,-9999.0,-,N/A,,Overcast,0,2013-04-18 04:51:00
11:12 PM,6.8,-0.4,72,29.82,-9999.0,North,-9999.0,-,N/A,,Overcast,0,2013-04-18 05:12:00
11:32 PM,6.8,-0.4,72,29.81,-9999.0,North,-9999.0,-,N/A,,Overcast,0,2013-04-18 05:32:00
11:38 PM,6.8,-0.4,72,29.81,-9999.0,West,19.6,-,N/A,,Overcast,280,2013-04-18 05:38:00